This is the latest recevied weather packets stored in our database for station/object KB1FFS. If no packets are shown the sender has not sent any weather packets the latest 10 day(s).
| Time | Temp. | Humidity | Pressure | Rain* | Wind** | Luminosity | Snow |
|---|---|---|---|---|---|---|---|
| 1787925260 | 27.22° C | 68% | 1019.5 hPa | 0 mm | - | 45 W/m² | - |
| 1787924959 | 26.67° C | 68% | 1019.6 hPa | 0 mm | - | 43 W/m² | - |
| 1787924654 | 26.67° C | 68% | 1019.7 hPa | 0 mm | - | 42 W/m² | - |
| 1787924348 | 26.67° C | 68% | 1019.5 hPa | 0 mm | - | 41 W/m² | - |
| 1787924043 | 26.11° C | 69% | 1019.7 hPa | 0 mm | - | 39 W/m² | - |
| 1787923738 | 25.56° C | 70% | 1019.4 hPa | 0 mm | - | 38 W/m² | - |
| 1787923433 | 25.56° C | 69% | 1019.3 hPa | 0 mm | - | 36 W/m² | - |
| 1787923128 | 25.56° C | 69% | 1019.6 hPa | 0 mm | - | 35 W/m² | - |
| 1787922823 | 25.56° C | 69% | 1019.6 hPa | 0 mm | - | 33 W/m² | - |
| 1787922523 | 25.56° C | 70% | 1019.5 hPa | 0 mm | - | 31 W/m² | - |
| 1787922222 | 25° C | 71% | 1019.2 hPa | 0 mm | - | 30 W/m² | - |
| 1787921919 | 25° C | 71% | 1019.3 hPa | 0 mm | - | 28 W/m² | - |
| 1787921614 | 25° C | 71% | 1019.1 hPa | 0 mm | - | 26 W/m² | - |
| 1787921313 | 25° C | 72% | 1019.2 hPa | 0 mm | - | 30 W/m² | - |
| 1787921010 | 24.44° C | 73% | 1019.3 hPa | 0 mm | - | 21 W/m² | - |
| 1787920705 | 24.44° C | 74% | 1019 hPa | 0 mm | - | 19 W/m² | - |
| 1787920404 | 23.89° C | 74% | 1019 hPa | 0 mm | - | 17 W/m² | - |
| 1787920101 | 23.89° C | 75% | 1018.7 hPa | 0 mm | - | 14 W/m² | - |
| 1787919796 | 23.89° C | 74% | 1018.8 hPa | 0 mm | - | 11 W/m² | - |
| 1787919496 | 23.89° C | 75% | 1019 hPa | 0 mm | - | 8 W/m² | - |
| 1787919192 | 23.89° C | 76% | 1018.7 hPa | 0 mm | - | 6 W/m² | - |
| 1787918892 | 23.89° C | 77% | 1018.6 hPa | 0 mm | - | 4 W/m² | - |
| 1787918587 | 23.89° C | 77% | 1018.4 hPa | 0 mm | - | 3 W/m² | - |
| 1787918285 | 23.89° C | 76% | 1018.4 hPa | 0 mm | - | 1 W/m² | - |
| 1787917980 | 23.89° C | 76% | 1018.5 hPa | 0 mm | - | 1 W/m² | - |
* Rain latest hour (hover to see other rain measurements)
** Current wind speed in m/s (hover to see current wind gust speed)